Location: Noves
(43.8767°N, 4.9021°E)
Time: 19:43:41
(UTC+00:00)

Daily predictions for brighter satellites

Satellite Brightness Start Highest point End
(mag) Time Altitude Azimuth Time Altitude Azimuth Time Altitude Azimuth
Cosmos 2266 Rocket 4.1 16:59:31 10° N 17:05:47 86° E 17:12:07 10° S
Cosmos 1809 Rocket 4.4 16:59:51 10° N 17:06:01 73° E 17:12:06 10° SSE
Cosmos 1939 Rocket 3.8 17:02:49 10° SE 17:06:09 26° ENE 17:09:26 10° NNE
Aureole 3 4.4 17:05:33 10° SE 17:07:36 16° E 17:09:33 10° NE
COSMOS 2487 2.6 17:04:27 10° NNW 17:07:54 76° WSW 17:11:19 10° SSE
Helios 1A Rocket 4.2 17:05:16 10° ESE 17:08:22 21° ENE 17:11:27 10° NNE
Cosmos 1328 3.7 17:04:52 10° N 17:08:50 83° E 17:12:46 10° S
Cosmos 2219 4.0 17:03:49 10° N 17:08:53 31° NE 17:13:56 10° ESE
Cosmos 1110 Rocket 4.0 17:04:33 10° S 17:09:45 67° ESE 17:14:57 10° NNE
GRACE-FO 1 4.5 17:07:01 10° N 17:10:38 80° E 17:14:13 10° S
GRACE-FO 2 4.5 17:07:24 10° N 17:11:01 81° E 17:14:37 10° S
Cosmos 44 3.3 17:11:57 10° SSW 17:16:17 54° ESE 17:20:53 10° NE
Aureole 3 Rocket 3.9 17:13:57 10° SE 17:17:15 28° E 17:21:27 10° NNE
CZ-2C R/B 4.3 17:13:03 10° ESE 17:17:41 25° ENE 17:22:14 10° N
Envisat 4.2 17:14:14 10° S 17:19:09 49° W 17:24:05 10° NNW
Cosmos 1953 Rocket 3.7 17:20:53 10° N 17:25:14 53° E 17:29:34 10° SSE
Cosmos 2058 Rocket 3.6 17:21:46 10° SSE 17:25:52 36° E 17:30:00 10° NNE
ATLAS 5 CENTAUR R/B 4.2 17:23:54 10° NW 17:26:02 13° NNW 17:28:18 10° N
Cosmos 2058 4.4 17:24:51 10° NNE 17:27:25 16° ENE 17:29:46 11° ESE
YAOGAN 6 4.5 17:24:38 10° SSW 17:28:01 36° W 17:31:27 10° NNW
CZ-4 R/B 2.3 17:24:51 10° ESE 17:28:03 25° ENE 17:31:13 10° NNE
CZ-4B R/B 4.1 17:23:17 10° S 17:28:47 56° WSW 17:34:14 10° NNW
Cosmos 1400 Rocket 3.4 17:25:32 10° SSE 17:29:20 37° E 17:33:07 10° NNE
GENESIS II 4.4 17:26:43 10° SW 17:30:44 76° NW 17:34:47 10° NNE
Lacrosse 5 3.7 17:27:12 10° WNW 17:30:56 20° NNW 17:34:40 10° NE
ADEOS Rocket 4.3 17:27:53 10° N 17:33:58 49° WNW 17:40:41 10° SW
Atlas Centaur 2 4.5 17:28:32 10° SSW 17:34:47 23° SSE 17:41:02 10° ESE
ARGOS 4.5 17:31:49 11° E 17:35:07 19° ENE 17:38:48 10° NNE
USA 281 3.9 17:30:43 10° S 17:37:09 58° WSW 17:43:38 10° NNW
Cosmos 1656 4.0 17:35:36 10° S 17:40:46 42° ESE 17:46:03 10° NE
FALCON 9 DEB 2.9 17:39:33 10° SW 17:42:47 90° NW 17:44:57 19° NE
Cosmos 292 Rocket 3.8 17:39:01 10° SSW 17:43:48 88° WNW 17:48:39 10° NNE
Cosmos 2227 Rocket 2.6 17:39:04 10° NNW 17:44:26 42° ENE 17:49:46 10° SE
Cosmos 1892 3.4 17:43:50 10° N 17:47:22 32° ENE 17:50:53 10° SE
FALCON 9 DEB 3.0 17:44:57 10° WSW 17:48:09 76° NNW 17:50:05 21° NE
S3M 4.4 17:43:20 10° SSE 17:48:49 36° E 17:54:20 10° NNE
CZ-4B R/B 2.8 17:45:49 10° N 17:48:51 38° WNW 17:51:48 10° SW
USA 305 4.2 17:45:28 10° NW 17:49:10 27° NNE 17:51:11 19° ENE
COSMO-SKYMED 1 2.5 17:46:40 10° NNE 17:51:02 79° ESE 17:55:21 10° S
Cosmos 2263 Rocket 4.2 17:49:41 10° NNE 17:51:02 11° NE 17:51:44 11° NE
CSL-04 Rocket 4.3 17:46:13 10° SE 17:51:07 33° ENE 17:56:01 10° N
GEOS 3 Rocket 4.3 17:48:40 17° E 17:52:13 38° NE 17:57:09 10° NNW
SL-4 R/B 3.3 17:50:41 10° NW 17:53:39 24° N 17:55:22 17° NE
USA 306 4.1 17:51:50 10° NW 17:55:33 28° NNE 17:57:16 21° NE
H-2A R/B 2.7 17:51:51 10° SE 17:56:43 36° ENE 18:01:39 10° N
Timation 2 Rocket 4.2 17:50:55 10° NNW 17:57:34 85° WSW 18:04:23 10° SSE
Cosmos 1300 3.4 17:53:58 10° SSW 17:57:43 56° W 18:01:29 10° N
CZ-2D R/B 3.1 17:53:57 10° SSE 17:57:44 73° ENE 18:01:33 10° N
Cosmos 1346 Rocket 3.5 17:54:46 10° N 17:58:23 32° ENE 17:59:46 25° ESE
FALCON 9 DEB 3.2 17:55:38 10° WSW 17:58:51 65° NNW 18:00:24 27° NE
Cosmos 1076 Rocket 4.5 17:55:27 10° NNE 17:58:51 25° ENE 17:58:51 25° ENE
Cosmos 1315 Rocket 3.8 17:55:56 10° SSE 17:58:40 25° ESE 17:58:40 25° ESE
Okean O Rocket 4.0 17:55:48 10° SSW 17:59:28 26° W 18:03:08 10° NW
Cosmos 1697 Rocket 3.3 17:56:11 10° SSE 18:01:08 33° ESE 18:04:16 19° NE
Cosmos 1408 3.4 17:58:24 10° NNE 18:01:19 29° ENE 18:01:19 29° ENE
YAOGAN 1 2.6 18:00:57 10° SSE 18:05:11 56° ENE 18:09:26 10° N
Geosat 4.1 18:03:24 12° NE 18:08:00 51° ESE 18:12:51 10° S
IRS-P2 Rocket 4.5 18:03:50 10° SSE 18:09:02 83° ENE 18:14:21 10° NNW
SL-08 ROCKET BODY 4.4 18:03:48 10° N 18:09:52 63° E 18:15:58 10° SSE
Cosmos 1825 4.1 18:08:04 10° NNE 18:09:07 16° NNE 18:09:07 16° NNE
FALCON 9 DEB 3.6 18:08:25 10° WSW 18:11:33 48° NNW 18:12:34 33° NNE
Meteor 2-8 Rocket 4.4 18:07:17 10° S 18:13:23 86° W 18:19:34 10° N
Cosmos 1553 Rocket 4.0 18:12:25 10° S 18:18:47 87° E 18:25:07 10° N
Cosmos 1689 Rocket 3.9 18:18:44 10° N 18:21:21 32° WNW 18:23:58 10° SW
Cosmos 1980 Rocket 3.6 18:18:46 10° SSE 18:21:06 20° SE 18:21:06 20° SE
Cosmos 2297 Rocket 2.2 18:18:54 10° NNW 18:24:36 82° WSW 18:30:15 10° SSE
Cosmos 1340 3.3 18:20:57 10° NNW 18:24:40 56° W 18:28:21 10° S
In-Cosmos 22 Rocket 4.3 18:22:00 10° NNW 18:27:20 72° W 18:32:46 10° S
SeaSat 1 2.7 18:29:14 43° ENE 18:29:45 44° NE 18:34:27 10° NNW
CSL-04 Debris 4.0 18:24:45 10° SSE 18:30:09 73° ENE 18:35:37 10° N
Okean-O 3.1 18:26:37 10° S 18:30:59 60° WSW 18:35:23 10° NNW
NOSS 3-3 (A) 3.8 18:28:29 10° SSW 18:34:07 63° ESE 18:36:53 33° NE
NOSS 3-3 (C) 3.8 18:28:34 10° SSW 18:34:14 62° ESE 18:37:00 33° NE
Meteor 2-15 Rocket 4.3 18:28:43 10° S 18:34:49 73° E 18:40:58 10° NNE
Cosmos 2360 4.3 18:30:25 10° S 18:35:53 49° ESE 18:36:44 45° E
USA 215 4.0 18:36:03 30° ENE 18:38:08 38° NNE 18:44:03 10° NW
USA 307 3.6 18:34:19 10° NW 18:38:09 40° NNE 18:38:09 40° NNE
USA 308 3.6 18:39:06 10° NW 18:42:46 41° N 18:42:46 41° N
Helios 1A Rocket 4.5 18:39:29 10° SSW 18:43:18 36° W 18:47:06 10° NNW
CRYOSAT 2 4.2 18:38:39 10° N 18:43:33 89° ESE 18:48:24 10° S
Cosmos 968 Rocket 3.6 18:40:33 10° NNW 18:45:46 72° WSW 18:49:24 20° S
Cosmos 1745 Rocket 4.0 18:39:39 10° N 18:45:58 82° W 18:52:18 10° S
Cosmos 1455 3.2 18:43:00 10° SSW 18:45:23 37° SSW 18:45:23 37° SSW
ATLAS 2AS CENTAUR R/B 3.6 18:40:59 10° NNW 18:47:40 32° NE 18:48:35 31° NE
Cosmos 2219 4.2 18:47:44 10° NW 18:53:13 46° WSW 18:58:39 10° S
SJ-11-01 4.5 18:51:59 24° S 18:54:48 69° WSW 18:59:29 10° NNW
CZ-4C R/B 4.1 18:51:12 10° NNW 18:56:35 24° NNE 18:57:03 23° NE
CZ-2C R/B 4.0 18:51:31 10° S 18:57:11 54° W 19:02:46 10° NNW
Cosmos 220 Rocket 4.4 18:54:42 10° SSW 18:59:01 61° WNW 18:59:40 54° NNW
MOS 1 Rocket 3.6 18:54:30 10° N 18:59:08 66° WNW 19:04:01 10° SSW
Cosmos 2082 3.6 18:57:02 10° NNW 19:02:48 88° WSW 19:03:45 64° SSE
CZ-4 R/B 3.5 18:59:43 10° SSW 19:03:00 25° W 19:06:15 10° NW
Cosmos 2058 4.0 19:00:40 10° NNW 19:04:33 42° W 19:06:04 29° SW
Meteor 2-10 Rocket 4.4 19:02:45 10° SSW 19:07:54 48° WNW 19:12:55 10° N
Cosmos 1503 Rocket 4.1 19:06:07 10° NNW 19:11:20 73° WSW 19:11:32 71° SW
Cosmos 2369 3.7 19:08:08 10° SSW 19:13:51 77° WNW 19:14:50 61° N
ARGOS 3.4 19:13:21 47° SSW 19:14:49 68° WSW 19:20:15 10° NNW
Lacrosse 5 3.8 19:11:44 10° NW 19:14:46 20° N 19:14:46 20° N
Cosmos 1709 Rocket 4.0 19:09:29 10° N 19:15:54 84° W 19:17:52 48° S
BREEZE-M R/B 4.2 19:11:30 10° WNW 19:16:19 67° NNE 19:16:54 64° NE
Timation 1 Rocket 4.3 19:10:51 10° NNW 19:16:23 73° N 19:16:23 73° N
Cosmos 1354 Rocket 4.3 19:17:02 10° NNW 19:21:46 63° WNW 19:21:46 63° WNW
Atlas Centaur 2 4.0 19:16:20 10° SW 19:23:32 31° S 19:23:52 31° S
Cosmos 2227 Rocket 3.8 19:23:25 10° NW 19:28:18 31° WSW 19:32:22 14° SSW
Milstar 3 4.3 19:24:54 10° SW 19:29:44 22° S 19:29:44 22° S
GEOS 3 Rocket 4.4 19:29:48 46° SW 19:30:07 47° WSW 19:35:18 10° NW
Cosmos 2315 Rocket 4.1 19:25:05 10° SSW 19:31:17 73° W 19:37:29 10° N
H-2A R/B 3.7 19:31:17 10° SSW 19:36:06 33° W 19:41:01 10° NNW
Cosmos 2263 Rocket 3.7 19:30:51 10° NNW 19:33:26 26° N 19:33:26 26° N
Cosmos 1697 Rocket 3.9 19:39:46 10° SW 19:44:59 39° WNW 19:46:04 35° NNW
Cosmos 1980 Rocket 4.4 20:01:41 10° SW 20:02:58 17° SW 20:02:58 17° SW
USA 215 4.3 20:23:24 39° NW 20:23:24 39° NW 20:27:16 10° NW
ATLAS 2AS CENTAUR R/B 4.1 20:31:57 10° NW 20:36:01 35° NW 20:36:01 35° NW
CZ-4C R/B 4.4 20:39:12 10° NNW 20:42:14 28° NNW 20:42:14 28° NNW
